Theta_e
330 328 329 331 326 321 324 323 317 320 328 325 313 311 314 312 312 314 313 314 320 324 329 334 335 334 334 335 335 335 338 340 341 348 354 352 348 349 351 351 349 348 351 354 354 352 352 350 348 348 349 349 347 345 344 343 342 342 341 340 339 339 338
330 329 329 330 328 327 323 317 319 327 330 327 318 313 314 314 312 313 312 312 315 315 319 330 336 335 333 335 336 336 338 341 343 347 352 354 351 349 351 354 350 346 349 353 353 352 350 347 345 346 350 350 347 344 344 343 342 343 342 341 341 340 340
328 331 328 325 328 330 327 323 328 327 317 316 317 313 313 314 314 314 313 313 313 312 316 328 333 334 334 335 336 336 335 339 345 347 349 352 352 348 349 354 352 346 348 354 354 351 349 346 342 344 349 349 345 344 344 343 343 343 343 343 342 340 339
328 329 325 318 320 327 328 328 331 327 320 316 316 315 314 313 313 313 313 312 312 316 324 331 333 335 335 333 335 337 335 335 342 346 347 351 351 350 349 350 352 350 350 354 353 348 346 342 340 345 348 345 343 344 343 343 343 343 343 342 341 339 339
325 322 323 321 321 324 323 320 320 322 321 321 320 318 316 314 312 312 313 312 312 322 334 334 333 334 333 333 334 336 336 334 337 342 347 351 353 354 353 350 350 351 352 352 351 349 345 341 343 345 345 342 341 343 343 342 342 342 342 342 341 340 338
317 319 328 328 327 327 325 321 319 320 320 318 316 315 315 315 313 311 313 312 312 326 337 333 333 333 332 334 334 335 336 335 335 338 343 351 355 355 355 354 352 353 352 349 349 348 345 343 346 345 343 343 341 343 344 341 341 341 341 342 341 341 339
322 327 331 328 327 330 330 327 326 327 324 317 311 311 313 313 313 314 313 311 315 330 337 332 334 335 333 335 335 336 336 336 338 339 340 350 355 355 355 352 350 351 351 348 347 346 344 346 348 345 344 344 341 342 344 341 340 340 339 340 341 341 340
327 328 330 330 330 329 327 327 329 329 326 322 320 319 318 316 313 314 314 311 317 333 339 334 336 336 334 335 335 336 336 337 340 341 342 351 356 359 357 352 351 350 349 349 348 346 346 348 349 347 345 344 342 342 342 341 339 338 337 336 337 340 341
318 320 323 323 325 326 325 327 330 329 329 328 326 324 322 318 314 315 315 312 318 336 343 337 336 336 333 335 335 336 337 336 338 341 346 354 359 360 358 354 352 348 349 352 351 349 349 350 350 348 345 344 342 341 340 339 338 339 338 335 335 338 339
312 313 315 315 319 324 325 327 329 329 329 328 324 319 316 315 315 316 315 313 320 338 343 337 336 336 335 336 335 335 336 336 337 342 348 354 360 362 360 356 352 351 352 355 353 351 351 350 351 349 346 344 343 341 340 338 337 338 338 337 337 337 337
314 314 319 325 325 321 318 321 325 327 329 329 325 317 312 315 316 315 317 319 320 330 338 336 336 336 335 336 335 335 337 337 337 342 348 353 360 363 362 358 354 355 357 356 354 352 350 351 351 348 346 343 342 342 340 337 337 337 337 337 338 338 336
323 325 328 331 329 322 319 320 322 325 328 328 324 316 317 323 317 312 322 328 321 324 335 335 334 336 336 336 336 336 336 337 337 342 348 351 354 360 365 360 356 359 358 355 355 353 352 353 350 348 347 344 342 342 340 337 337 337 337 338 339 340 338
327 331 329 330 330 326 325 325 323 324 326 325 322 320 325 328 318 315 329 335 326 328 336 334 333 336 335 335 336 335 335 337 336 340 348 350 349 355 364 363 359 360 358 357 357 357 357 354 350 350 349 345 344 343 340 338 337 337 338 340 341 341 339
325 329 328 329 328 326 326 326 326 328 328 326 326 326 329 330 324 325 335 335 332 333 336 335 334 335 336 336 336 334 334 335 335 336 343 349 349 352 359 363 362 360 360 360 361 361 358 353 351 352 349 346 345 344 340 339 338 338 339 341 342 341 339
319 327 329 327 328 326 323 324 327 329 327 327 327 328 329 329 326 329 333 330 331 335 336 336 335 336 339 337 335 335 334 334 335 333 335 343 348 349 354 361 363 362 363 363 363 362 357 351 352 351 348 346 345 341 339 338 338 339 339 341 343 342 339
315 325 327 324 328 326 319 319 324 326 324 324 326 328 330 328 326 328 327 323 328 335 335 335 336 337 338 337 334 335 336 334 334 334 337 342 346 348 352 359 363 364 364 364 364 361 354 352 352 349 348 347 343 339 338 337 338 339 340 340 341 341 341
315 323 325 324 324 319 314 318 324 326 327 327 327 329 332 332 330 327 324 325 332 335 334 334 335 334 335 335 334 335 338 340 339 340 343 343 342 344 350 356 361 363 363 364 364 360 355 352 351 348 347 345 340 338 336 336 338 339 340 339 339 341 342
315 321 324 323 319 313 316 325 330 330 330 329 328 328 330 333 334 331 330 332 334 334 334 334 334 334 334 334 335 337 338 340 341 341 342 343 342 343 347 352 357 360 362 364 363 360 355 352 351 348 345 342 338 337 336 337 338 338 337 338 339 340 341
316 319 322 318 315 317 324 331 333 331 331 331 330 331 332 332 333 334 335 334 333 334 334 334 334 334 335 335 336 337 336 339 342 341 341 344 346 347 349 354 356 360 362 363 361 360 356 352 349 347 342 339 338 337 337 337 339 338 337 337 338 339 339
319 317 317 318 322 329 334 336 334 332 334 334 330 328 331 333 332 334 335 334 334 334 334 333 334 333 334 335 335 335 335 338 341 340 340 343 345 347 351 354 357 360 362 360 358 357 355 350 347 344 340 338 338 338 337 337 338 338 338 338 338 338 337
320 315 314 320 325 328 332 336 336 334 333 334 330 326 329 334 334 333 334 335 335 334 333 332 332 333 334 334 333 332 334 338 341 341 339 341 344 348 352 353 356 358 358 357 357 354 352 348 344 341 339 337 337 338 337 336 337 338 338 338 338 337 338
322 317 314 318 319 319 326 334 337 334 331 333 334 328 328 334 334 332 334 335 334 334 333 332 333 335 334 333 332 332 333 337 340 340 339 341 344 349 351 353 355 356 356 357 356 353 349 345 341 339 338 337 337 337 336 336 336 337 337 336 336 336 337
320 317 315 317 317 318 327 335 336 333 330 333 334 327 324 332 334 331 332 333 333 333 332 332 335 335 332 331 332 334 334 334 336 339 341 342 345 350 351 352 354 355 356 357 355 351 346 342 340 338 337 337 336 336 336 335 335 335 336 335 334 335 337
319 318 317 317 318 322 330 334 331 330 333 334 331 320 321 329 333 332 331 333 333 333 333 333 334 334 332 332 332 334 334 333 336 342 345 345 347 350 351 353 355 356 357 355 352 347 343 340 339 338 337 336 335 335 336 335 334 334 334 333 334 335 335
317 317 316 316 320 329 334 332 330 333 333 329 323 319 326 332 333 333 332 333 332 332 333 333 333 334 333 331 332 333 332 334 340 345 347 348 349 349 349 353 356 357 356 355 350 344 342 341 339 336 335 335 335 335 337 336 336 335 334 332 333 334 334
317 318 317 314 319 332 336 331 332 332 328 324 324 330 336 335 332 332 333 332 332 333 333 332 332 334 332 331 333 333 330 337 344 345 346 347 346 346 351 356 357 356 356 353 347 342 341 341 339 336 334 336 336 337 338 338 338 337 334 332 331 332 334
319 317 316 314 319 332 335 330 333 332 329 331 337 339 337 333 332 334 333 333 333 333 332 333 333 333 332 332 334 333 334 340 344 345 347 348 346 348 353 356 355 354 352 347 343 341 340 339 337 335 334 336 337 338 339 338 338 338 336 333 332 333 333
319 314 317 322 328 334 333 332 336 335 334 338 340 337 334 333 334 333 332 333 334 334 334 335 335 335 334 334 334 337 340 341 342 346 348 347 346 348 350 349 348 347 346 345 341 338 337 335 335 335 336 338 340 342 342 339 339 341 339 334 332 332 333
328 324 330 336 336 335 332 333 336 335 333 335 335 334 335 335 334 334 333 333 334 334 335 336 336 336 335 334 336 338 339 340 343 347 348 346 345 344 342 342 344 343 343 343 338 335 338 341 342 341 341 344 348 348 346 343 342 343 341 338 337 337 338
334 334 336 336 334 334 332 331 332 332 332 332 334 335 337 337 337 336 336 336 336 336 336 337 338 337 334 335 339 338 338 341 344 346 347 345 343 339 338 341 344 340 340 340 338 341 346 348 347 344 343 346 348 346 346 346 344 343 344 344 343 341 338
331 331 334 334 333 333 332 332 332 330 329 330 333 335 337 337 337 337 338 339 339 339 338 338 340 338 335 336 339 339 340 342 344 346 347 344 342 342 344 346 345 342 340 339 339 343 346 346 345 343 341 343 344 343 343 344 343 344 345 344 341 338 334
332 331 334 334 332 332 333 332 330 329 329 330 332 334 335 335 335 335 336 337 338 338 337 337 339 338 335 337 340 342 344 346 346 347 349 349 349 347 346 345 344 342 340 339 339 342 343 344 344 342 338 337 338 339 339 339 340 343 344 340 337 335 333
332 334 335 334 332 332 332 330 329 329 329 330 332 332 332 333 334 335 336 334 335 336 335 336 339 339 338 341 340 338 342 345 345 346 349 349 347 344 344 344 345 344 343 341 341 344 345 343 342 341 339 336 333 332 335 336 337 339 339 336 335 334 332
330 334 335 334 333 333 332 330 328 328 329 331 331 330 330 331 333 335 335 334 336 338 337 338 340 340 340 341 338 336 340 343 343 345 346 344 341 341 344 344 344 344 344 342 343 345 343 341 340 338 338 337 332 327 331 335 336 337 337 334 333 331 330
330 331 330 330 332 333 331 329 328 329 330 332 330 329 329 330 330 332 334 335 338 340 339 339 341 341 341 339 337 339 341 342 342 343 341 340 340 341 341 342 342 342 341 341 343 343 340 339 338 336 335 335 333 330 332 335 336 337 337 334 331 329 328
328 326 325 326 328 329 328 327 327 328 330 330 329 327 328 328 328 330 332 335 339 341 339 339 340 341 340 337 337 341 342 342 342 340 338 338 339 336 336 340 342 340 339 340 341 339 337 336 336 333 331 332 332 331 332 334 335 336 336 333 331 329 329
324 322 322 323 325 325 326 326 326 327 329 329 327 327 327 327 328 328 330 335 338 338 337 337 337 338 337 335 336 341 342 340 339 339 338 338 336 332 333 337 339 338 338 337 337 336 334 333 333 332 330 331 332 332 332 332 333 334 335 334 333 331 330
Wind_Speed
17 17 14 12 10 8 7 8 10 7 6 7 7 7 6 6 7 4 5 6 6 5 6 10 10 7 8 7 6 9 10 11 12 13 15 17 16 15 16 16 17 17 17 20 19 19 21 22 21 20 19 19 18 17 16 14 13 11 9 7 6 5 4
16 17 15 13 13 11 6 7 9 6 3 5 6 5 5 6 7 6 6 8 6 5 5 7 11 7 7 8 8 8 8 11 13 13 13 15 15 14 15 16 17 17 16 19 20 20 22 24 23 21 21 20 19 17 16 15 13 12 10 8 7 6 4
14 15 14 12 12 14 9 4 7 8 5 5 5 5 5 6 6 6 7 8 7 6 4 7 10 7 5 6 6 6 8 10 11 12 13 15 16 16 16 15 15 15 16 19 23 23 23 25 25 25 24 21 19 18 16 15 14 12 10 9 7 6 5
14 11 11 10 10 12 10 6 5 6 5 5 6 5 6 6 6 6 6 5 5 4 4 8 8 4 2 3 5 5 7 8 9 11 12 13 15 14 14 15 15 15 18 21 24 25 26 28 27 27 24 22 20 18 16 15 14 12 11 9 8 6 5
14 9 10 11 11 11 10 8 7 8 6 5 4 6 7 7 5 5 5 5 2 3 4 4 4 3 2 4 4 5 6 7 7 9 10 11 13 13 13 14 14 15 19 22 23 25 28 29 28 27 25 23 20 19 17 16 15 13 11 10 9 7 6
11 10 13 15 16 14 12 10 10 10 8 6 6 7 8 7 6 5 5 6 2 7 7 5 5 2 2 2 3 4 5 5 6 7 9 11 12 14 15 16 15 15 19 22 21 23 28 28 29 29 27 23 21 19 18 16 15 14 12 11 10 8 7
10 13 16 19 20 17 13 12 12 11 10 8 7 7 7 6 7 7 6 7 2 7 6 4 6 3 3 2 3 4 3 4 5 6 8 10 12 13 15 18 17 17 20 22 23 25 28 28 28 28 25 23 21 20 19 16 15 13 11 11 11 10 8
10 13 16 18 18 15 12 12 12 12 11 10 9 8 7 5 6 6 5 7 3 5 5 5 5 1 2 1 3 3 3 4 4 5 7 8 12 14 15 17 17 16 19 20 22 26 28 26 26 25 24 22 20 19 18 16 15 13 10 9 10 10 9
10 10 10 12 14 12 11 10 12 14 14 14 12 10 6 4 7 8 7 7 3 5 6 5 3 2 3 2 4 4 3 4 5 5 6 7 11 14 16 17 16 16 18 18 20 24 25 25 26 25 23 21 20 19 17 16 14 13 12 9 9 9 9
11 11 9 9 10 10 10 12 16 17 17 17 13 9 7 6 8 10 10 7 3 8 7 5 3 2 1 3 4 3 3 4 5 5 5 7 9 12 16 18 17 17 17 15 18 23 25 25 26 24 23 22 20 18 17 15 12 12 12 10 9 9 9
13 11 10 10 11 12 13 15 19 18 18 18 14 10 10 7 7 10 9 7 5 6 7 4 3 3 2 4 6 6 5 5 6 5 5 6 8 11 13 15 16 17 17 17 20 24 26 27 26 25 24 23 20 19 18 14 11 10 11 10 10 9 9
18 15 12 15 18 18 17 18 21 21 20 19 16 14 13 9 9 10 7 6 11 12 10 8 7 5 4 4 6 8 7 6 6 5 6 7 10 12 12 13 15 16 17 17 19 23 26 27 26 25 24 23 21 20 17 13 11 12 11 11 11 10 9
18 19 19 19 18 17 17 18 21 22 21 21 18 16 16 13 11 9 3 4 11 12 10 10 10 8 7 7 7 8 8 8 8 8 9 11 13 14 14 14 15 16 17 17 18 22 26 26 26 26 24 22 21 18 15 13 14 14 12 12 12 11 10
20 22 24 23 18 15 16 19 20 20 20 21 19 18 19 18 16 13 9 9 13 11 8 12 12 8 7 8 7 8 10 10 11 11 11 12 14 15 14 15 16 16 17 18 19 22 25 26 26 25 23 22 20 17 14 16 16 14 12 12 12 11 11
16 20 22 21 18 16 19 21 21 20 19 20 20 18 18 18 16 14 13 13 13 8 6 11 10 3 2 6 8 10 11 11 12 12 11 11 13 14 15 16 16 17 18 19 19 22 25 27 27 25 23 22 20 18 18 19 17 14 13 13 13 12 12
10 16 17 15 15 19 22 22 21 21 20 19 17 15 16 16 13 10 9 10 9 6 6 9 6 3 6 9 9 9 9 10 12 11 9 9 10 12 14 15 16 18 20 20 20 23 27 28 27 26 24 23 21 19 20 18 16 15 14 13 12 12 12
10 16 16 14 16 18 17 16 19 21 20 18 17 16 15 12 8 7 7 7 7 5 5 6 6 7 10 9 8 8 8 9 10 9 9 10 10 11 12 13 16 18 19 20 23 26 28 30 29 27 26 24 22 21 20 16 15 15 14 13 13 13 13
10 15 15 13 15 14 11 11 15 17 17 17 17 15 12 6 3 6 9 8 7 5 4 5 8 9 9 9 8 8 8 9 10 10 11 10 10 10 11 12 15 16 16 18 24 28 29 30 30 28 26 23 21 20 18 16 16 14 14 14 13 13 15
10 11 11 12 13 12 10 9 10 10 12 15 15 14 12 9 8 10 11 10 9 7 5 6 8 8 7 8 9 9 9 9 9 10 10 8 8 9 10 12 13 14 15 17 21 25 28 30 28 26 24 22 20 18 17 17 17 15 14 13 13 15 15
9 8 10 10 6 5 6 6 7 8 10 12 14 12 12 12 11 11 11 10 9 8 7 7 7 6 6 8 9 10 10 9 8 9 8 7 8 9 9 11 12 14 16 19 21 23 26 27 26 24 22 20 19 18 18 17 17 16 15 14 15 16 16
8 9 11 9 5 4 6 6 7 8 8 9 9 9 10 10 10 9 9 9 8 7 7 7 4 3 5 8 10 11 10 8 7 8 6 6 6 7 9 11 13 15 17 19 22 24 25 26 25 23 21 20 18 18 18 18 17 16 16 17 17 17 18
8 10 11 10 9 9 8 8 7 7 8 7 5 6 7 8 8 9 9 9 7 5 7 7 2 1 6 9 8 6 7 7 6 6 5 4 5 7 9 11 14 16 17 19 24 26 26 25 23 21 20 19 18 17 17 17 18 18 18 18 19 19 19
9 11 10 9 10 9 7 9 10 12 12 7 4 5 7 7 9 12 11 9 6 5 6 5 2 3 7 7 3 2 4 4 5 5 5 4 6 8 10 12 14 16 18 21 24 25 25 24 23 21 20 18 17 17 17 17 17 18 19 19 19 18 18
9 10 9 8 8 6 5 9 9 8 9 6 6 7 6 3 4 5 4 5 4 4 5 4 3 5 7 6 4 1 3 4 4 5 5 5 8 9 11 13 15 17 19 21 23 24 24 23 22 19 18 17 17 17 17 18 17 18 18 17 17 17 16
11 11 10 9 7 2 1 5 6 5 7 7 7 6 2 2 1 1 2 3 4 3 4 5 4 5 7 6 6 6 6 4 5 6 7 8 9 10 12 15 16 18 20 22 23 24 23 22 20 18 17 17 16 16 17 17 18 17 15 13 15 17 16
10 10 10 11 8 1 1 5 6 6 8 7 4 2 2 0 1 1 2 5 5 4 6 6 5 7 9 7 6 9 8 5 6 8 8 9 10 11 13 16 18 18 19 21 23 22 21 20 18 15 15 14 14 15 16 17 19 19 16 14 15 17 16
9 10 11 11 6 1 2 5 5 4 5 3 2 2 1 1 2 2 2 3 5 6 8 9 8 10 12 9 8 9 5 3 5 8 9 9 10 12 15 17 18 18 18 20 22 21 18 18 17 16 15 15 15 14 15 17 20 20 18 16 15 16 17
8 8 7 4 1 3 3 2 2 1 1 2 3 1 2 1 2 3 4 4 5 6 9 10 10 12 13 11 9 6 3 3 6 8 9 10 11 13 15 16 17 17 18 19 20 18 16 15 15 14 14 14 14 14 17 22 23 22 19 17 16 17 17
3 1 1 3 3 2 2 2 1 1 2 3 3 3 3 3 3 4 5 7 7 8 9 10 9 11 13 11 8 7 7 8 9 8 9 10 10 12 13 14 14 14 15 16 16 14 8 4 3 5 5 7 11 14 17 19 18 16 14 13 13 13 12
2 3 2 3 3 1 1 3 2 3 4 5 5 5 5 4 5 6 7 8 9 9 10 10 9 11 13 11 9 10 10 9 8 7 8 9 9 10 10 11 11 12 13 14 13 7 5 6 4 2 1 5 9 11 9 7 7 6 5 6 8 10 11
2 2 3 2 2 0 1 2 4 6 7 7 7 6 5 6 7 7 7 8 10 11 11 11 10 11 13 12 11 11 9 8 8 7 6 8 8 7 8 9 8 8 9 10 10 6 5 1 1 1 3 7 9 8 6 4 3 3 5 7 9 10 9
4 4 3 1 1 1 2 3 4 6 7 8 8 7 6 6 7 8 8 8 10 11 11 12 11 12 13 11 9 7 4 4 5 5 7 9 11 11 10 10 9 8 5 5 5 5 5 4 3 2 4 8 7 4 4 5 3 3 7 8 9 9 8
5 3 2 1 2 5 5 6 7 7 7 8 9 9 8 8 8 9 10 10 9 10 12 11 7 8 9 5 4 4 3 4 2 4 7 11 12 12 11 10 11 11 9 6 6 6 5 4 3 2 1 2 4 5 5 4 3 4 7 7 7 7 7
5 1 4 3 3 4 2 6 8 8 8 8 8 9 9 10 11 10 11 11 8 9 10 7 3 4 5 4 7 6 4 5 3 4 7 11 11 10 11 11 11 12 11 9 8 7 5 5 4 3 3 4 6 8 6 2 1 4 6 7 7 7 6
1 6 7 6 5 4 4 7 8 8 7 7 8 9 10 11 11 11 12 11 8 6 6 6 3 2 2 4 5 7 7 7 5 2 4 10 9 6 9 11 10 11 11 9 8 8 5 4 5 3 3 4 5 6 4 1 1 4 7 7 7 7 7
3 7 8 6 6 6 8 9 9 7 5 6 8 10 11 12 12 12 12 10 7 4 2 3 4 4 5 4 3 8 11 11 10 5 2 7 8 5 6 10 11 11 11 9 9 8 5 4 4 3 3 3 3 4 2 1 2 4 7 8 8 9 9
6 6 7 5 5 7 9 10 10 7 5 7 9 10 11 12 13 13 11 9 7 5 1 1 5 5 5 5 5 9 10 10 12 10 6 8 12 11 8 10 12 11 11 9 8 6 5 3 3 2 3 3 2 3 3 3 4 5 7 8 9 9 8
Wind_Direction
190 207 216 194 207 215 184 205 227 223 223 239 249 246 242 260 272 248 218 235 234 242 236 195 183 195 202 206 227 224 216 214 223 223 201 195 200 197 193 188 186 193 183 171 182 187 186 191 190 184 180 176 173 172 174 178 179 185 190 192 196 196 207
190 206 217 199 217 234 199 193 217 215 226 267 277 263 221 223 249 251 238 249 240 234 246 174 157 186 208 195 204 216 214 211 219 226 209 197 201 201 199 191 183 187 177 165 177 191 195 192 187 189 187 178 175 175 176 179 181 186 188 190 196 194 205
186 198 215 202 213 238 250 241 215 211 210 222 238 251 241 222 236 247 229 233 249 249 219 156 156 188 213 202 201 210 222 215 213 226 219 201 199 201 201 192 181 182 176 169 175 187 200 197 188 191 191 181 178 177 178 182 182 185 189 190 194 198 208
180 192 215 207 197 215 247 278 239 221 225 219 206 205 242 250 239 252 247 229 245 262 201 165 151 151 197 237 214 202 234 229 209 220 224 207 200 194 190 192 190 181 174 174 175 183 201 203 191 190 192 187 182 178 178 183 182 184 190 190 194 200 210
182 195 207 213 205 192 210 240 230 215 217 237 227 196 220 249 253 257 266 255 248 68 91 118 100 107 197 249 236 200 225 241 223 218 218 211 202 184 176 189 191 176 174 176 175 185 203 202 189 189 195 193 186 179 179 184 184 186 191 192 195 199 205
194 209 200 210 220 203 192 209 226 227 218 220 230 217 216 234 255 256 256 259 228 98 96 110 105 120 208 237 260 224 208 229 242 231 216 207 202 192 182 181 179 176 180 177 175 195 210 202 189 191 193 190 186 182 182 185 187 190 193 193 193 196 202
213 221 204 205 222 227 214 205 216 228 225 217 224 232 226 223 241 246 248 259 219 104 105 117 104 57 347 350 300 281 244 229 234 235 223 201 196 200 189 178 180 183 179 174 180 200 208 197 188 190 187 185 187 185 182 184 188 191 194 192 188 191 201
214 223 214 202 211 233 238 216 210 219 222 215 218 236 243 233 235 238 241 246 212 104 96 91 88 40 302 246 218 246 282 280 250 236 233 200 187 196 193 185 188 184 176 181 190 196 196 188 185 187 185 184 187 185 184 186 188 190 193 193 188 191 200
203 210 220 201 196 218 238 233 222 224 228 221 212 219 229 224 226 232 244 244 204 99 91 89 82 296 301 265 194 188 222 278 281 255 232 205 191 194 193 189 190 187 185 189 188 186 186 182 182 185 184 183 184 183 186 191 190 188 189 194 196 196 203
210 201 210 207 203 211 224 235 233 227 230 233 228 221 213 206 221 233 249 255 166 122 130 143 172 207 299 287 256 236 212 225 260 264 238 214 203 201 197 190 188 192 192 185 178 179 181 180 182 182 180 181 181 179 186 194 191 184 184 191 197 201 210
241 227 211 209 218 221 216 224 234 234 232 232 235 240 232 220 226 232 243 264 246 200 202 219 226 214 225 258 266 270 255 230 233 242 244 236 220 212 208 198 192 189 183 178 178 179 180 180 179 178 177 179 178 178 185 190 187 187 189 192 196 203 215
248 253 233 216 218 225 220 215 223 232 234 232 231 238 239 235 240 238 225 243 255 254 258 272 286 291 287 276 267 267 267 259 245 218 213 234 237 224 212 204 200 188 178 179 179 177 178 177 175 175 175 177 178 179 181 182 190 198 196 193 198 204 212
239 249 248 237 228 229 229 224 223 225 228 231 232 236 237 234 242 245 181 191 250 260 268 273 285 300 297 285 275 274 275 271 264 238 206 210 228 228 213 204 201 189 181 180 176 176 176 173 172 173 174 178 179 173 173 186 198 202 195 193 201 204 209
226 233 240 242 241 236 234 234 232 230 228 226 226 233 238 237 241 239 208 212 245 258 268 276 283 295 295 291 285 278 276 271 266 255 227 210 219 224 215 206 202 193 185 180 176 178 176 173 174 173 173 178 171 159 177 200 202 198 195 194 199 205 212
230 230 231 233 239 242 240 239 237 236 236 232 228 231 236 239 243 237 224 227 243 251 264 273 276 271 244 265 266 265 272 272 265 259 248 230 222 220 213 205 199 193 188 182 180 181 178 176 175 172 174 173 159 161 192 203 195 194 198 197 200 207 215
245 247 243 237 241 245 245 245 242 239 238 240 240 236 235 242 246 234 222 234 249 257 265 266 263 230 241 260 269 273 276 273 266 262 260 253 240 229 218 206 199 195 190 185 185 183 179 176 174 174 174 165 158 177 199 197 190 195 197 198 203 209 216
242 246 243 240 244 246 243 240 241 240 238 240 242 237 234 243 257 248 238 250 268 278 274 270 267 266 272 282 290 293 293 286 279 269 263 263 257 243 226 211 204 201 195 189 187 183 178 175 174 174 171 162 166 186 194 188 191 197 195 199 206 212 217
243 241 236 237 241 240 240 243 246 246 245 246 247 245 239 232 237 262 270 279 285 282 265 265 273 275 280 287 288 290 290 283 275 266 258 256 253 243 230 214 206 204 202 197 190 183 178 175 173 170 168 165 172 184 186 186 194 199 199 203 208 214 218
243 243 234 233 236 238 244 258 264 258 254 255 257 258 257 249 239 247 258 262 262 264 266 266 269 269 271 276 279 279 277 269 261 259 254 244 237 233 221 209 202 200 201 198 193 186 178 172 168 167 167 169 173 179 185 190 194 198 202 206 212 219 221
243 242 231 229 243 258 247 252 264 255 248 251 253 254 254 255 253 244 243 245 245 252 262 259 258 268 276 278 272 261 257 253 248 249 249 236 225 219 211 204 195 193 197 194 190 186 177 168 165 166 168 170 174 181 189 194 197 198 201 208 218 223 223
236 241 238 230 233 241 224 224 238 242 242 239 241 249 246 242 246 241 233 243 247 251 265 262 257 291 291 279 265 246 228 223 236 247 252 241 219 204 201 196 186 189 196 189 180 178 174 169 166 166 167 172 179 187 194 198 200 200 201 210 220 225 224
229 244 248 238 236 237 224 214 207 214 240 242 226 242 236 214 227 244 242 246 249 246 258 259 250 305 278 271 267 234 192 187 205 222 230 218 191 186 189 184 179 184 187 177 172 174 172 166 164 165 170 176 183 192 200 202 202 204 208 216 223 223 224
229 238 244 241 245 245 230 228 220 215 230 232 190 226 234 203 215 240 240 237 236 234 243 241 202 249 267 276 307 101 160 191 189 186 199 186 166 172 177 174 174 176 173 170 171 171 166 162 164 169 175 182 189 196 204 208 210 211 214 219 224 223 223
240 242 246 245 250 251 238 251 249 217 205 193 185 226 247 204 209 240 231 211 213 232 249 246 227 246 264 291 337 355 224 223 170 161 179 165 155 165 170 166 166 165 164 166 168 166 162 163 166 172 180 191 199 202 205 212 217 220 221 222 223 224 224
241 243 248 248 249 253 198 235 234 194 190 202 216 239 281 73 108 84 133 205 233 255 264 256 244 254 264 275 295 278 243 202 155 163 171 160 161 169 164 156 157 161 165 169 168 164 163 165 169 178 188 197 206 209 209 215 223 227 229 227 224 225 228
241 244 251 250 247 299 31 226 212 196 209 217 223 293 349 330 246 114 171 230 265 289 286 280 277 276 271 268 272 266 247 192 166 174 168 164 170 163 150 149 156 162 166 170 170 167 167 172 178 188 195 201 213 219 217 220 227 229 230 234 234 229 225
240 242 253 259 254 168 185 213 198 194 217 214 75 30 343 259 267 287 237 250 282 293 290 291 291 285 280 273 261 252 237 171 182 183 167 168 168 151 148 157 164 166 166 170 173 171 173 184 193 200 204 208 219 232 235 233 233 233 233 234 233 226 225
254 244 245 263 332 95 138 164 133 150 187 45 40 340 307 314 284 281 277 281 293 294 289 288 291 288 282 272 257 245 198 181 213 194 167 169 166 157 162 167 169 170 169 170 177 181 187 201 207 206 207 209 214 226 235 235 234 234 233 229 227 231 234
293 296 101 98 87 82 107 119 116 101 83 60 21 338 322 311 297 293 291 290 290 287 282 280 281 280 274 262 245 235 214 201 202 186 166 165 166 169 172 167 168 173 169 173 189 193 184 185 185 179 199 223 228 229 232 235 237 237 236 232 227 223 213
69 80 92 100 89 54 92 114 90 41 42 43 26 8 348 336 330 314 301 299 297 291 285 283 278 271 267 254 236 235 226 198 179 172 164 159 164 175 165 150 164 179 175 183 196 179 85 50 50 87 261 271 262 254 250 249 251 248 238 223 202 182 173
156 209 233 197 127 64 13 61 54 35 23 19 21 11 349 341 327 307 302 303 295 286 278 273 268 264 261 248 230 226 217 181 160 157 148 138 141 143 122 115 143 173 183 196 195 151 101 57 322 2 278 262 257 260 268 264 239 206 193 186 176 168 171
217 223 230 218 128 161 114 70 49 31 14 8 12 8 350 332 311 300 301 294 285 281 275 267 265 265 260 245 220 201 173 130 135 146 136 124 120 118 113 111 117 125 144 184 185 145 141 178 188 170 227 247 251 265 286 286 265 193 182 186 186 181 180
251 208 148 58 247 204 152 87 48 22 8 3 4 2 352 340 331 321 307 292 283 281 277 269 267 271 265 234 161 149 117 93 121 161 135 119 113 111 108 102 98 97 101 110 113 110 116 126 122 97 43 322 316 315 307 297 268 201 188 190 192 183 177
259 132 73 25 294 227 139 54 25 7 5 2 357 359 358 352 349 337 316 305 306 303 298 298 289 266 252 183 151 160 152 123 137 167 131 115 112 112 109 103 99 98 97 98 104 107 103 96 88 67 52 31 341 323 327 345 243 204 193 192 197 197 205
326 62 52 17 347 336 355 5 357 354 1 356 347 355 358 349 347 341 329 323 320 314 326 337 321 252 229 205 173 147 130 120 122 152 118 101 98 111 121 119 116 111 109 110 111 108 100 92 89 67 36 28 359 340 350 21 235 209 195 198 216 235 248
1 47 40 15 353 333 327 334 335 339 0 358 344 348 349 343 341 339 334 329 314 295 10 358 284 204 170 209 189 134 139 145 136 131 106 102 119 168 168 133 121 116 114 115 113 109 104 94 80 40 355 357 354 342 337 289 240 220 212 220 240 256 262
336 6 9 353 334 316 311 314 311 312 352 358 339 336 338 335 331 328 325 323 302 271 227 316 276 241 193 206 184 146 155 159 138 138 171 167 165 186 183 136 123 121 120 119 118 116 110 91 68 20 333 327 334 330 316 280 255 245 238 241 252 264 270